KUIPER-00131

导读

KUIPER-00153是美国亚马逊“柯伊伯计划”星座中的一颗低轨互联网卫星,于2025年9月25日发射入轨。该卫星属于柯伊伯第一代星座组网批次,运行于近地轨道,旨在和同星座其他卫星共同构建全球卫星互联网网络,挑战SpaceX星链的市场主导地位,为全球提供宽带互联网接入服务。柯伊伯计划规划总计部署超过3200颗卫星,KUIPER-00153是该项目按期推进组网部署的组成部分。

基本信息
目录编号:
65773
目录名称:
KUIPER-00153
国际标识:
2025-217M
轨道中心:
EARTH
卫星名称:
KUIPER-00153
卫星全名:
KUIPER-00131
卫星状态:
在轨 (已飞行305 天)
发射日期:
2025-09-25 UTC
国别 :
美国 (US)
星等 :
--
轨道信息
数据来源 国际轨道数据 AOE轨道数据
星历时间 2026-07-27T10:00:34+0800
20小时前
查看轨道信息
2026-07-28T00:00:00+0800
6小时前
查看轨道信息
半长轴 7007.65km 7007.63km
偏心率 0.0000846 0.0001165
轨道倾角 51.901° 51.901°
近地点辐角 97.712° 100.385°
升交点赤经 129.279° 126.702°
平近点角 262.393° 127.401°
近地点 628.92km 628.676km
远地点 630.106km 630.31km
周期 97.301分钟 97.301分钟
每日圈数 14.799404 14.799466
详细信息
使用方式:
暂无
2D轨道图
3D轨道图
轨道高度分析图
轨道倾角分析图
轨道综合分析图
查看轨道综合分析图